SB KEPS @ AMSAT $ORB07123.O Orbital Elements 07123.OSCAR
HR AMSAT ORBITAL ELEMENTS FOR OSCAR SATELLITES FROM WA5QGD FORT WORTH,TX May 3, 2007 Send Subscribe/unsubscribe to KEPS at http://www.amsat.org/mailman/listinfo/keps BID: ORB07123.O TO ALL RADIO AMATEURS BT
Satellite: AO-07 Catalog number: 07530 Epoch time: 07122.73161735 Element set: 0866 Inclination: 101.5184 deg RA of node: 162.0709 deg Eccentricity: 0.0012129 Arg of perigee: 345.8945 deg Mean anomaly: 014.1782 deg Mean motion: 12.53572604 rev/day Decay rate: -2.8e-07 rev/day^2 Epoch rev: 48542 Checksum: 288
Satellite: AO-10 Catalog number: 14129 Epoch time: 07119.48597038 Element set: 0380 Inclination: 026.6407 deg RA of node: 279.5892 deg Eccentricity: 0.6058402 Arg of perigee: 017.9775 deg Mean anomaly: 356.3864 deg Mean motion: 02.05869008 rev/day Decay rate: 5.2e-07 rev/day^2 Epoch rev: 17956 Checksum: 338
Satellite: UO-11 Catalog number: 14781 Epoch time: 07123.48797399 Element set: 363 Inclination: 098.1913 deg RA of node: 145.3223 deg Eccentricity: 0.0008734 Arg of perigee: 322.8649 deg Mean anomaly: 037.1958 deg Mean motion: 14.79544945 rev/day Decay rate: -6.3e-07 rev/day^2 Epoch rev: 24312 Checksum: 329
Satellite: RS-15 Catalog number: 23439 Epoch time: 07122.92731725 Element set: 0082 Inclination: 064.8165 deg RA of node: 080.1100 deg Eccentricity: 0.0160723 Arg of perigee: 198.8972 deg Mean anomaly: 160.5942 deg Mean motion: 11.27552024 rev/day Decay rate: -3.9e-07 rev/day^2 Epoch rev: 50859 Checksum: 295
Satellite: FO-29 Catalog number: 24278 Epoch time: 07122.94423280 Element set: 0495 Inclination: 098.5464 deg RA of node: 088.6745 deg Eccentricity: 0.0350442 Arg of perigee: 200.4027 deg Mean anomaly: 158.2816 deg Mean motion: 13.52929359 rev/day Decay rate: 9.0e-08 rev/day^2 Epoch rev: 52878 Checksum: 333
Satellite: SO-33 Catalog number: 25509 Epoch time: 07122.41010899 Element set: 0918 Inclination: 031.4305 deg RA of node: 124.5516 deg Eccentricity: 0.0354788 Arg of perigee: 027.1571 deg Mean anomaly: 334.7146 deg Mean motion: 14.28165857 rev/day Decay rate: 2.76e-06 rev/day^2 Epoch rev: 44470 Checksum: 306
Satellite: AO-40 Catalog number: 26609 Epoch time: 07122.95437375 Element set: 872 Inclination: 005.2006 deg RA of node: 151.2733 deg Eccentricity: 0.7990259 Arg of perigee: 310.2214 deg Mean anomaly: 003.6104 deg Mean motion: 01.25586302 rev/day Decay rate: -2.0e-08 rev/day^2 Epoch rev: 2987 Checksum: 275
Satellite: VO-52 Catalog number: 28650 Epoch time: 07123.39185839 Element set: 617 Inclination: 097.8340 deg RA of node: 195.1069 deg Eccentricity: 0.0027980 Arg of perigee: 041.7400 deg Mean anomaly: 318.5893 deg Mean motion: 14.81305176 rev/day Decay rate: 2.51e-06 rev/day^2 Epoch rev: 10778 Checksum: 319
Satellite: PO-63 Catalog number: 29712 Epoch time: 07123.74915908 Element set: 328 Inclination: 097.9237 deg RA of node: 183.5205 deg Eccentricity: 0.0012873 Arg of perigee: 273.7146 deg Mean anomaly: 086.2594 deg Mean motion: 14.79662748 rev/day Decay rate: 9.50e-06 rev/day^2 Epoch rev: 1676 Checksum: 343
/EX SB KEPS @ AMSAT $ORB07123.D Orbital Elements 07123.MICROS
HR AMSAT ORBITAL ELEMENTS FOR THE MICROSATS FROM WA5QGD FORT WORTH,TX May 3, 2007 Send SUBSCRIBE KEPS/UNSUBSCRIBE KEPS to majordomo@amsat.org only BID: ORB07123.D TO ALL RADIO AMATEURS BT
Satellite: AO-16 Catalog number: 20439 Epoch time: 07123.50429957 Element set: 25 Inclination: 098.1944 deg RA of node: 120.5257 deg Eccentricity: 0.0010558 Arg of perigee: 325.9513 deg Mean anomaly: 034.0997 deg Mean motion: 14.31758388 rev/day Decay rate: 4.1e-07 rev/day^2 Epoch rev: 90215 Checksum: 303
Satellite: LO-19 Catalog number: 20442 Epoch time: 07123.48037590 Element set: 952 Inclination: 098.1798 deg RA of node: 129.9118 deg Eccentricity: 0.0011381 Arg of perigee: 324.0520 deg Mean anomaly: 035.9902 deg Mean motion: 14.31998900 rev/day Decay rate: -2.3e-07 rev/day^2 Epoch rev: 90229 Checksum: 301
Satellite: AO-27 Catalog number: 22825 Epoch time: 07123.46235104 Element set: 675 Inclination: 098.3272 deg RA of node: 095.3017 deg Eccentricity: 0.0009269 Arg of perigee: 039.4905 deg Mean anomaly: 320.6968 deg Mean motion: 14.29206113 rev/day Decay rate: -1.45e-06 rev/day^2 Epoch rev: 70910 Checksum: 297
Satellite: IO-26 Catalog number: 22826 Epoch time: 07122.46740975 Element set: 0371 Inclination: 098.3202 deg RA of node: 095.4405 deg Eccentricity: 0.0009826 Arg of perigee: 038.1305 deg Mean anomaly: 322.0564 deg Mean motion: 14.29452985 rev/day Decay rate: 3.7e-07 rev/day^2 Epoch rev: 70904 Checksum: 301
Satellite: PO-28 Catalog number: 22829 Epoch time: 07123.49519839 Element set: 649 Inclination: 098.3086 deg RA of node: 097.5954 deg Eccentricity: 0.0010268 Arg of perigee: 010.5661 deg Mean anomaly: 349.5731 deg Mean motion: 14.30152509 rev/day Decay rate: 3.1e-07 rev/day^2 Epoch rev: 70942 Checksum: 321
Satellite: GO-32 Catalog number: 25397 Epoch time: 07123.30368780 Element set: 291 Inclination: 098.4174 deg RA of node: 172.4725 deg Eccentricity: 0.0001585 Arg of perigee: 037.3237 deg Mean anomaly: 322.8051 deg Mean motion: 14.23124898 rev/day Decay rate: 1.14e-06 rev/day^2 Epoch rev: 45777 Checksum: 305
Satellite: MO-46 Catalog number: 26548 Epoch time: 07122.46777099 Element set: 0785 Inclination: 064.5577 deg RA of node: 324.1058 deg Eccentricity: 0.0020909 Arg of perigee: 202.8593 deg Mean anomaly: 157.1605 deg Mean motion: 14.83130870 rev/day Decay rate: 2.53e-06 rev/day^2 Epoch rev: 35676 Checksum: 329
Satellite: NO-44 Catalog number: 26931 Epoch time: 07123.44998406 Element set: 577 Inclination: 067.0515 deg RA of node: 262.7280 deg Eccentricity: 0.0007343 Arg of perigee: 274.1763 deg Mean anomaly: 085.8500 deg Mean motion: 14.29483007 rev/day Decay rate: 8.5e-07 rev/day^2 Epoch rev: 29170 Checksum: 310
Satellite: SO-50 Catalog number: 27607 Epoch time: 07123.46533127 Element set: 303 Inclination: 064.5590 deg RA of node: 220.8133 deg Eccentricity: 0.0049226 Arg of perigee: 012.9808 deg Mean anomaly: 347.2551 deg Mean motion: 14.71253189 rev/day Decay rate: 7.2e-07 rev/day^2 Epoch rev: 23454 Checksum: 282
Satellite: CO-55 Catalog number: 27844 Epoch time: 07122.32040577 Element set: 0018 Inclination: 098.7196 deg RA of node: 131.2495 deg Eccentricity: 0.0009108 Arg of perigee: 220.0590 deg Mean anomaly: 139.9917 deg Mean motion: 14.20507552 rev/day Decay rate: 8.6e-07 rev/day^2 Epoch rev: 19896 Checksum: 313
Satellite: CO-57 Catalog number: 27848 Epoch time: 07121.98290195 Element set: 0978 Inclination: 098.7182 deg RA of node: 130.1281 deg Eccentricity: 0.0008955 Arg of perigee: 226.8839 deg Mean anomaly: 133.1597 deg Mean motion: 14.20327012 rev/day Decay rate: 6.5e-07 rev/day^2 Epoch rev: 19889 Checksum: 343
Satellite: AO-51 Catalog number: 28375 Epoch time: 07122.58713430 Element set: 0806 Inclination: 098.1176 deg RA of node: 164.2467 deg Eccentricity: 0.0084280 Arg of perigee: 321.5009 deg Mean anomaly: 038.0196 deg Mean motion: 14.40564399 rev/day Decay rate: 1.1e-07 rev/day^2 Epoch rev: 14915 Checksum: 297
Satellite: CO-56 Catalog number: 28941 Epoch time: 07122.88263826 Element set: 425 Inclination: 098.1352 deg RA of node: 178.9730 deg Eccentricity: 0.0232662 Arg of perigee: 073.6687 deg Mean anomaly: 288.9982 deg Mean motion: 15.38217089 rev/day Decay rate: 2.6840e-04 rev/day^2 Epoch rev: 6646 Checksum: 362
Satellite: HO-59 Catalog number: 29484 Epoch time: 07123.23672869 Element set: 295 Inclination: 098.2909 deg RA of node: 166.2641 deg Eccentricity: 0.0221148 Arg of perigee: 067.1830 deg Mean anomaly: 295.2216 deg Mean motion: 15.47973330 rev/day Decay rate: 6.2906e-04 rev/day^2 Epoch rev: 3411 Checksum: 328
Satellite: NO-60 Catalog number: 29661 Epoch time: 07123.82485990 Element set: 227 Inclination: 051.6385 deg RA of node: 319.9088 deg Eccentricity: 0.0007847 Arg of perigee: 202.2924 deg Mean anomaly: 157.7746 deg Mean motion: 16.05560616 rev/day Decay rate: 2.27530e-03 rev/day^2 Epoch rev: 2130 Checksum: 317
Satellite: NO-61 Catalog number: 29664 Epoch time: 07123.68386775 Element set: 137 Inclination: 051.6328 deg RA of node: 326.5215 deg Eccentricity: 0.0014454 Arg of perigee: 166.5607 deg Mean anomaly: 193.5783 deg Mean motion: 15.88808807 rev/day Decay rate: 2.9657e-04 rev/day^2 Epoch rev: 2107 Checksum: 342
Satellite: CP4 Catalog number: 31122 Epoch time: 07123.28222853 Element set: 25 Inclination: 098.0868 deg RA of node: 198.0099 deg Eccentricity: 0.0086643 Arg of perigee: 163.9184 deg Mean anomaly: 196.4801 deg Mean motion: 14.54994258 rev/day Decay rate: 1.39e-06 rev/day^2 Epoch rev: 232 Checksum: 308
Satellite: CP3 Catalog number: 31128 Epoch time: 07123.45492228 Element set: 17 Inclination: 098.0845 deg RA of node: 198.0970 deg Eccentricity: 0.0104002 Arg of perigee: 163.3485 deg Mean anomaly: 197.1190 deg Mean motion: 14.51827569 rev/day Decay rate: -4.7e-07 rev/day^2 Epoch rev: 233 Checksum: 286
Satellite: LIBERT Catalog number: 31129 Epoch time: 07123.66074979 Element set: 52 Inclination: 098.0841 deg RA of node: 198.2945 deg Eccentricity: 0.0102929 Arg of perigee: 162.7157 deg Mean anomaly: 197.7585 deg Mean motion: 14.51913583 rev/day Decay rate: 3.85e-06 rev/day^2 Epoch rev: 234 Checksum: 320
/EX SB KEPS @ AMSAT $ORB07123.W Orbital Elements 07123.WEATHER
HR AMSAT ORBITAL ELEMENTS FOR WEATHER SATELLITES FROM WA5QGD FORT WORTH,TX May 3, 2007 Send SUBSCRIBE KEPS/UNSUBSCRIBE KEPS to majordomo@amsat.org only BID: ORB07123.W TO ALL RADIO AMATEURS BT
Satellite: NOAA-10 Catalog number: 16969 Epoch time: 07122.59733711 Element set: 0643 Inclination: 098.7473 deg RA of node: 139.7484 deg Eccentricity: 0.0011681 Arg of perigee: 303.5798 deg Mean anomaly: 056.4278 deg Mean motion: 14.27323190 rev/day Decay rate: -5.7e-07 rev/day^2 Epoch rev: 07272 Checksum: 325
